Presure
112 143 98 95 151 91 150 158 149 105 161 96 152 101 98 150 160 113 107 172 105 87 80 94 107 101 99 167 145 170 144 168 84 99 180 180 140 159 158 154 133 105 116
89 137 91 116 126 129 154 152 125 168 94 137 108 169 107 146 174 174 152 102 96 105 153 116 100 93 93 149 160 158 182 171 192 190 126 123 209 170 125 181 186 115 99
90 143 83 99 150 144 137 153 146 167 165 131 95 125 157 147 106 102 168 136 184 91 100 103 150 94 165 157 91 102 182 185 192 135 195 177 192 206 124 102 104 148 154
123 138 111 110 124 150 153 131 117 160 163 124 151 140 117 95 96 181 152 94 104 127 103 91 92 95 101 91 84 153 192 166 182 186 179 198 107 205 109 176 116 106 97
105 149 138 146 147 138 156 166 152 163 161 142 158 160 132 138 114 166 169 108 91 119 110 118 99 89 90 95 160 127 153 167 179 184 202 120 182 168 136 143 168 140 127
114 139 142 149 152 151 161 167 160 169 169 132 129 126 140 106 113 123 103 146 173 105 91 94 95 95 94 79 87 178 124 134 127 179 181 201 184 186 164 195 182 128 118
147 139 141 147 153 152 154 113 157 150 102 157 161 154 157 169 144 112 129 88 102 89 89 115 92 92 136 88 95 150 98 172 176 152 169 182 111 122 114 123 150 153 120
146 143 142 144 159 151 154 154 156 150 148 141 164 161 120 100 162 102 104 129 157 126 125 120 89 84 116 83 106 133 139 194 174 197 187 157 182 158 152 126 124 111 115
141 145 146 146 172 154 146 153 151 92 155 166 152 158 152 156 173 120 154 159 141 151 125 83 123 88 119 97 105 137 155 152 189 135 185 189 138 141 140 119 137 148 147
147 147 145 160 165 148 156 146 152 147 157 164 180 149 150 156 145 165 142 157 169 116 133 118 105 95 90 83 141 158 181 160 176 123 171 169 198 184 141 134 136 142 150
144 148 159 169 157 149 153 151 156 152 152 152 159 156 153 152 169 143 210 170 136 106 140 106 130 108 110 102 188 156 135 173 147 152 138 162 196 200 166 161 139 123 151
139 155 154 156 159 150 156 157 159 159 154 170 147 144 164 190 117 154 159 159 172 105 150 158 95 90 121 125 182 157 132 176 163 166 171 223 108 159 167 137 144 138 137
141 145 151 153 150 148 149 153 154 165 183 128 161 154 156 152 161 99 86 83 142 138 95 96 99 99 125 144 147 113 155 126 139 148 138 154 125 157 162 157 155 139 133
123 142 152 153 150 149 146 151 153 155 154 159 157 156 90 156 149 162 159 149 96 109 107 92 106 149 156 171 157 141 129 152 157 156 139 155 133 134 134 162 154 155 151
106 140 98 105 150 146 150 169 160 163 121 111 119 155 168 154 94 92 117 156 138 159 143 96 154 153 157 159 160 125 132 142 156 166 178 154 191 220 149 146 148 147 212
123 138 145 148 145 117 126 143 113 86 110 117 112 151 162 112 120 125 98 151 136 120 143 141 140 155 155 153 142 125 122 140 202 161 177 135 174 169 185 147 132 154 157
151 112 95 141 113 101 145 144 156 91 102 144 99 121 115 110 88 97 156 165 143 122 150 150 179 159 152 156 144 147 153 126 126 164 168 171 149 159 174 163 144 141 170
143 111 143 142 156 155 151 102 109 146 160 102 108 101 90 92 148 89 163 152 107 147 97 143 143 157 157 150 145 147 154 129 146 201 159 205 169 142 128 138 125 162 139
126 127 109 145 89 123 82 94 101 103 109 100 118 83 162 90 88 87 90 93 114 111 115 106 156 151 148 155 133 139 147 145 153 161 199 154 172 137 135 139 142 134 143
102 124 120 135 81 79 168 79 145 97 114 156 92 163 128 167 90 88 90 89 96 137 152 159 121 167 150 148 152 156 148 152 165 163 145 134 128 191 143 117 123 147 156
206 125 123 125 107 197 149 82 150 97 154 139 90 162 160 162 90 90 105 91 155 97 117 109 127 133 134 146 150 144 157 166 154 172 161 115 123 124 130 119 145 142 148
131 159 141 165 165 114 130 199 217 218 223 191 219 151 125 232 167 114 112 115 149 161 160 160 146 123 139 134 135 153 131 139 140 157 174 140 128 122 187 153 136 134 141
188 190 117 155 121 116 131 141 158 210 101 94 115 89 191 163 172 173 161 125 149 165 143 192 159 157 136 154 143 137 136 137 111 147 161 164 140 136 143 135 143 144 136
201 160 160 162 202 208 156 207 172 144 151 205 100 203 148 154 111 95 232 251 306 112 145 125 150 156 152 154 161 150 132 127 129 141 152 163 159 146 120 125 132 144 133
199 196 81 203 139 223 217 234 177 237 259 143 266 271 344 223 362 355 145 258 168 156 209 125 159 146 160 160 166 146 129 129 147 153 133 132 119 171 167 133 135 128 147
219 220 224 231 234 244 250 270 87 264 102 293 291 311 388 444 458 452 191 149 154 353 200 141 173 143 167 157 160 147 134 119 137 131 135 167 165 131 153 178 150 143 136
Wind_Speed
8 21 18 14 27 7 21 22 21 10 19 5 21 9 7 18 22 4 9 23 5 2 4 9 12 12 13 22 20 23 25 23 29 21 23 21 16 19 17 14 13 14 10
9 21 4 20 20 21 23 23 20 23 5 22 17 20 15 18 26 25 18 1 3 4 21 13 8 11 14 20 21 23 29 26 29 24 3 8 20 17 8 17 18 10 18
15 24 7 15 25 31 22 25 24 24 18 22 3 20 21 19 11 7 25 16 25 2 4 10 17 10 23 22 19 21 27 28 28 15 21 17 21 19 9 16 13 11 12
22 20 17 20 29 31 31 19 21 25 21 25 22 20 19 8 3 26 19 4 7 12 6 5 8 11 14 16 21 20 27 19 21 22 18 22 18 20 14 14 13 5 24
20 25 30 30 27 27 34 34 29 29 25 22 22 21 23 17 17 23 21 13 5 11 9 19 11 12 14 16 20 23 15 16 18 22 28 12 19 14 8 8 13 15 9
20 29 31 31 28 30 34 33 30 32 32 17 18 25 20 15 20 23 10 23 23 12 6 8 9 12 14 18 20 24 19 18 16 17 20 27 19 20 15 22 22 13 12
30 30 32 30 33 31 31 20 28 29 16 29 29 25 26 26 20 18 23 6 12 7 9 18 10 13 17 18 20 20 22 20 21 13 19 21 12 11 13 9 14 13 13
30 31 33 32 38 34 34 33 30 31 30 28 29 28 19 9 28 11 11 15 22 26 20 15 14 17 20 21 23 21 19 27 21 26 24 18 22 18 17 12 13 17 16
34 33 34 34 39 35 34 33 30 13 32 38 33 29 28 29 28 11 28 27 28 23 28 11 27 18 20 20 24 22 21 19 24 15 24 26 16 15 14 19 16 18 19
36 36 35 41 40 35 36 34 34 30 32 36 40 33 31 28 30 31 27 31 31 22 27 22 15 15 16 22 25 27 23 22 23 22 21 19 30 28 17 13 14 18 21
37 38 43 41 40 37 36 38 40 36 35 35 37 35 32 31 31 31 42 34 29 16 28 19 24 20 22 26 31 27 25 28 21 20 18 25 30 30 19 23 19 19 22
40 45 43 43 42 39 39 40 42 42 39 43 35 37 41 48 21 34 32 34 39 17 31 32 20 20 28 24 29 25 22 28 24 27 27 37 26 21 24 18 20 20 18
43 42 44 44 43 41 41 42 43 45 48 31 43 41 43 37 38 11 12 17 32 32 19 22 27 30 29 25 27 31 26 29 22 22 20 22 24 25 26 23 23 19 17
36 45 47 47 45 45 44 45 46 46 46 47 45 45 10 44 38 40 38 38 14 26 25 19 29 32 35 37 32 25 26 27 27 25 24 24 26 22 22 26 24 25 24
29 46 16 22 48 47 48 52 51 52 33 27 26 47 51 45 13 17 28 42 33 40 38 28 38 35 35 37 35 27 26 31 34 35 39 25 39 40 25 23 22 22 36
33 47 51 51 49 36 38 46 35 19 29 29 30 47 52 24 29 28 20 40 35 27 36 40 40 40 38 36 29 31 32 29 40 37 37 31 38 34 40 24 26 26 26
58 32 21 53 32 22 52 51 57 24 20 50 22 29 26 23 22 20 48 49 40 36 43 42 43 44 40 40 30 33 37 30 27 45 43 42 23 31 39 27 24 23 36
60 33 57 57 64 61 58 24 29 52 57 31 25 22 25 22 50 26 54 48 31 43 33 44 42 46 47 42 35 34 40 33 34 42 37 38 43 26 33 33 34 29 30
53 52 40 61 32 43 23 27 26 25 28 26 43 25 61 30 29 28 31 33 39 39 39 36 47 47 47 48 33 34 37 35 38 40 39 42 34 27 31 29 31 32 30
36 51 49 56 27 23 63 20 59 32 35 47 29 66 44 62 35 31 34 30 38 47 48 48 39 49 50 49 49 48 41 42 43 47 34 29 33 42 35 34 31 28 37
64 53 49 48 42 55 65 31 67 38 68 57 35 66 61 61 37 39 42 33 55 44 46 44 42 45 46 50 50 46 49 45 46 49 52 36 34 36 37 41 31 32 33
61 54 66 67 68 47 56 64 70 74 76 74 82 61 50 84 64 48 51 50 55 57 57 58 51 46 48 46 46 51 38 41 40 46 51 41 35 40 43 40 37 38 36
70 63 52 59 52 49 60 67 75 78 34 34 49 38 80 65 68 69 66 53 60 62 55 71 58 56 48 55 54 48 47 43 44 44 48 54 46 39 39 40 41 41 42
65 71 72 72 73 74 71 80 67 63 68 86 38 90 63 66 53 50 89 91 96 54 58 48 57 59 55 57 58 57 49 42 39 45 51 52 56 47 46 49 49 47 45
71 73 35 75 46 79 77 82 62 85 90 65 94 98 71 58 91 96 61 78 68 65 77 53 63 54 60 61 63 54 47 48 57 55 43 47 45 58 59 48 51 49 52
72 73 75 76 77 81 84 82 45 79 49 62 65 59 46 50 52 61 67 64 67 91 71 56 71 54 63 60 62 55 47 48 52 50 50 59 56 49 54 61 56 55 54
Wind_Direction
207 245 257 266 282 290 268 288 272 309 286 323 282 294 271 297 292 269 335 300 306 43 24 348 334 341 341 315 319 312 326 314 351 339 306 302 308 306 299 298 300 324 312
272 238 141 266 273 259 271 270 254 290 352 255 282 295 278 289 298 299 303 22 146 328 301 326 334 337 340 316 312 314 305 312 309 311 273 279 301 296 357 290 292 299 341
267 245 135 280 278 273 268 278 265 287 280 254 310 254 286 279 295 318 298 299 294 302 339 323 296 329 307 307 339 335 303 307 308 316 309 301 301 299 268 313 289 283 296
255 252 256 271 265 277 280 267 273 284 277 245 271 264 285 244 223 289 290 296 305 300 309 324 325 331 338 339 339 308 296 307 308 300 302 303 309 303 282 289 281 304 325
258 250 250 262 262 272 281 284 285 288 285 268 272 275 264 286 278 288 288 296 274 293 302 303 314 322 333 337 298 320 312 299 298 305 303 307 298 291 271 288 294 290 289
254 243 253 266 274 275 280 279 279 284 280 258 258 255 269 291 286 273 290 287 296 294 305 302 308 316 327 342 326 294 312 311 313 294 297 298 292 295 287 294 287 282 286
257 250 259 267 275 264 266 263 277 275 265 269 272 270 274 283 276 281 282 267 286 280 302 290 301 312 301 318 322 300 324 286 285 295 292 288 283 286 281 294 291 293 283
249 251 255 263 274 265 269 268 272 268 279 270 276 280 266 248 282 254 270 277 278 280 282 285 305 307 303 325 319 306 303 286 290 288 290 284 282 282 282 285 286 315 273
244 250 256 260 267 265 263 271 267 228 273 276 275 275 274 280 278 269 271 273 272 273 280 279 291 297 299 317 320 305 292 294 289 294 290 290 287 284 286 278 298 302 302
247 251 254 268 267 261 267 265 269 261 274 276 277 270 271 271 266 281 274 278 276 280 274 279 292 305 305 303 291 291 276 282 281 300 289 290 287 284 290 282 292 305 305
247 257 267 267 262 259 262 262 266 263 263 261 266 265 261 261 273 263 277 270 264 278 272 290 278 286 301 314 282 288 293 282 287 287 288 287 287 284 277 291 288 282 300
241 261 260 262 262 257 264 264 266 266 263 266 268 258 272 279 269 256 262 272 274 279 270 273 310 296 302 285 277 277 282 282 289 279 284 271 289 282 283 289 298 293 299
245 250 258 260 256 256 259 262 264 268 271 261 263 262 266 262 264 238 231 236 264 267 307 306 313 313 291 282 284 299 278 288 273 284 276 290 275 283 285 285 286 287 283
255 250 258 260 257 256 255 261 264 264 263 263 262 257 248 259 253 265 254 258 297 303 306 294 305 271 277 274 280 281 285 286 284 282 270 283 273 271 277 284 285 289 291
260 253 237 257 259 257 261 263 262 263 251 243 262 261 266 257 278 273 263 253 263 261 266 286 274 272 273 275 276 278 280 286 291 285 276 277 279 273 275 279 287 286 282
248 252 253 254 256 245 248 259 249 208 247 265 255 259 264 277 279 279 293 266 271 281 268 273 276 270 272 272 274 275 277 281 266 287 279 272 279 281 281 267 273 288 290
253 242 226 253 244 246 257 258 262 238 258 266 253 272 275 281 265 278 261 263 262 291 263 265 263 265 270 268 269 275 274 278 279 284 284 283 264 268 279 280 264 266 293
253 236 254 255 259 260 260 251 260 264 263 259 270 269 257 260 267 271 268 269 285 261 283 270 271 265 267 272 277 274 276 278 281 265 274 265 279 261 271 266 282 282 274
256 259 254 259 223 259 240 236 250 251 261 255 263 267 262 266 272 278 281 278 276 282 284 281 265 268 272 268 286 278 278 274 278 274 276 273 263 270 268 273 275 280 280
254 258 258 263 243 255 268 265 268 242 254 264 259 264 264 264 272 284 285 293 276 270 265 266 278 261 269 272 271 270 275 274 271 271 273 266 273 278 270 277 277 278 277
268 260 263 265 252 271 268 262 269 242 268 261 257 268 271 271 277 283 287 282 269 284 268 272 270 276 278 273 270 272 270 265 271 260 269 272 269 267 268 274 273 271 280
257 264 262 266 266 263 265 275 276 275 275 273 270 276 278 269 272 279 261 279 269 267 266 265 265 265 270 276 277 263 275 274 277 272 259 267 270 269 266 279 271 272 269
266 266 256 264 262 263 266 269 270 271 277 292 278 293 273 274 276 274 273 266 264 264 264 261 262 261 267 262 269 275 273 276 276 275 265 267 271 268 273 274 276 275 267
266 263 264 266 267 269 268 266 276 276 273 271 284 271 266 265 275 281 273 270 266 280 262 263 263 261 261 260 260 262 270 266 266 276 272 263 269 270 273 277 275 277 271
263 262 259 267 268 277 278 280 278 280 285 265 284 284 284 277 270 268 261 264 261 261 258 264 259 262 259 258 258 259 266 271 271 270 269 271 283 264 272 262 269 276 275
273 273 275 279 280 282 284 285 270 284 275 288 289 303 317 300 297 274 258 259 261 262 262 261 258 261 259 259 258 259 265 271 269 271 271 266 266 272 269 266 273 273 274